Regional Weather Roundup
Issued by NWS

Home | Current Version | Previous Version | Text Only | Print | Product List | Glossary On
Versions: 1 2 3 4 5 6 7 8 9 10 11 12 13 14 15 16 17 18 19 20 21 22 23 24 25 26 27 28 29 30 31 32 33 34 35 36 37 38 39 40 41 42 43 44 45 46 47 48 49 50
522
ASUS43 KLSX 271857
RWRMO

WEATHER SUMMARY FOR MISSOURI
NATIONAL WEATHER SERVICE SPRINGFIELD MO
200 PM CDT WED JUL 27 2016

NOTE: "FAIR" INDICATES FEW OR NO CLOUDS BELOW 12,000 FEET WITH NO
       SIGNIFICANT WEATHER AND/OR OBSTRUCTIONS TO VISIBILITY.
       CURRENT SKY AND/OR WEATHER CONDITIONS ARE NOT AVAILABLE FOR
       CHILLICOTHE AND FARMINGTON.

MOZ001>031-035>038-043-044-053-054-272000-
...NORTHERN AND WESTERN MISSOURI...

CITY           SKY/WX    TMP DP  RH WIND       PRES   REMARKS
KANSAS CTY INT CLOUDY    87  70  56 VRB5      29.99F HX  92
LEE`S SUMMIT   MOSUNNY   88  68  51 VRB3      29.99F HX  91
ST JOSEPH      CLOUDY    86  69  56 CALM      29.98F HX  90

$$
MOZ066>068-077>081-088>096-101>105-272000-
...SOUTHWEST MISSOURI...

CITY           SKY/WX    TMP DP  RH WIND       PRES   REMARKS
SPRINGFIELD    CLOUDY    80  73  79 SE3       30.00S
JOPLIN         PTSUNNY   87  75  67 VRB5      29.97F HX  96
BRANSON        PTSUNNY   88  73  62 CALM      30.00F HX  96

$$
MOZ032>034-039>042-045>050-055>058-069>072-272000-
...CENTRAL MISSOURI...

CITY           SKY/WX    TMP DP  RH WIND       PRES   REMARKS
COLUMBIA       NOT AVBL
JEFFERSON CITY MOSUNNY   88  74  63 E5        29.95F HX  96
ROLLA          PTSUNNY   85  73  67 VRB3      29.98F HX  91
SEDALIA        MOSUNNY   90  74  59 VRB5      29.98F HX  99

$$
MOZ051-052-059>065-272000-
...EAST CENTRAL MISSOURI...

CITY           SKY/WX    TMP DP  RH WIND       PRES   REMARKS
ST LOUIS INTL  MOSUNNY   89  71  55 CALM      29.96F HX  95
ST CHARLES     MOSUNNY   86  75  70 S5        29.95F HX  95

$$
MOZ072>076-082>087-097>100-106>115-272000-
...SOUTH CENTRAL AND SOUTHEAST MISSOURI...

CITY           SKY/WX    TMP DP  RH WIND       PRES   REMARKS
CAPE GIRARDEAU SUNNY     89  75  63 CALM      29.93F HX  99
POPLAR BLUFF   MOSUNNY   89  76  65 SE6       29.92F HX 100
WEST PLAINS    CLOUDY    87  70  56 SE7       30.00F HX  92

$$



USA.gov is the U.S. government's official web portal to all federal, state and local government web resources and services.